Location: G�nzburg
(48.4565°N, 10.3217°E)
Time: 10:09:42
(UTC+01:00)

Amateur Radio Satellites - All Passes

Search period start: 21 January 2018 09:39
Search period end: 22 January 2018 09:39
Location: G�nzburg, 48.4565°N, 10.3217°E

Satellite Date Start Highest point End Downlink Frequencies (MHz)
Time Altitude Azimuth
UNISAT 6 21 Jan 09:47:42 09:51:50 37° 263° (W) 09:56:06 437.425
O/OREOS (USA 219) 21 Jan 09:57:05 10:01:33 65° 62° (ENE) 10:06:00 437.305
PRISM 21 Jan 09:57:29 10:01:33 74° 73° (ENE) 10:05:36 437.425
ZACube-1 21 Jan 10:01:29 10:04:27 17° 300° (WNW) 10:07:23 437.345
Max Valier Satellite 21 Jan 10:02:13 10:05:53 56° 100° (E) 10:09:31 145.860
AO-73 21 Jan 10:08:15 10:11:08 17° 301° (WNW) 10:13:58 145.935
POLYITAN 1 21 Jan 10:09:48 10:12:41 18° 61° (ENE) 10:15:35 437.675
BEESAT 3 21 Jan 10:16:00 10:19:59 74° 125° (SE) 10:23:59 437.485
EO-88 21 Jan 10:20:45 10:24:21 60° 100° (E) 10:27:56 145.990 - 145.960
NANOSAT C BR1 21 Jan 10:24:53 10:28:07 22° 63° (ENE) 10:31:22 145.865
AIST 2D 21 Jan 10:27:37 10:31:07 68° 75° (ENE) 10:34:38 435.315
PCSat 21 Jan 10:31:49 10:37:14 84° 123° (ESE) 10:42:42 145.827
QB50P2 21 Jan 10:38:18 10:42:10 35° 68° (ENE) 10:46:04 145.880/145.840
Oscar 11 21 Jan 10:42:25 10:43:58 12° 303° (WNW) 10:45:32 .
DELFI C3 21 Jan 10:59:05 11:02:19 25° 294° (WNW) 11:05:34 145.870
SO-50 21 Jan 11:01:12 11:03:11 12° 13° (NNE) 11:05:10 436.795
BEESAT 2 21 Jan 11:04:15 11:08:15 65° 124° (SE) 11:12:16 435.950
YUBILEINY 21 Jan 11:05:01 11:13:34 61° 268° (W) 11:22:02 435.215
DUCHIFAT 1 21 Jan 11:07:30 11:11:32 47° 70° (ENE) 11:15:37 145.980
EO-79 21 Jan 11:08:47 11:12:57 63° 72° (ENE) 11:17:11 145.935-145.965
ESTCUBE 1 21 Jan 11:19:22 11:23:26 32° 96° (E) 11:27:27 437.505/2401.250
Gurwin Techsat 1B 21 Jan 11:22:20 11:25:04 14° 53° (NE) 11:27:49 435.225
Oscar 19 21 Jan 11:33:42 11:37:32 21° 58° (ENE) 11:41:23 437.125/150
PRISM 21 Jan 11:35:50 11:37:18 12° 272° (W) 11:38:46 437.425
Max Valier Satellite 21 Jan 11:37:14 11:39:16 14° 298° (WNW) 11:41:17 145.860
O/OREOS (USA 219) 21 Jan 11:37:43 11:40:26 16° 260° (W) 11:43:10 437.305
LO-87 21 Jan 11:39:27 11:43:06 69° 102° (ESE) 11:46:43 145.935 - 145.965
AO-91 21 Jan 11:39:54 11:41:40 14° 60° (ENE) 11:43:29 145.960
POLYITAN 1 21 Jan 11:43:52 11:48:03 57° 259° (W) 11:52:17 437.675
RS-15 21 Jan 11:51:56 12:03:20 41° 340° (NNW) 12:14:22 29.354- 29.394
BEESAT 3 21 Jan 11:54:55 11:57:56 20° 326° (NW) 12:00:58 437.485
EO-88 21 Jan 11:55:49 11:57:31 13° 299° (WNW) 11:59:14 145.990 - 145.960
NANOSAT C BR1 21 Jan 11:59:30 12:03:33 44° 261° (W) 12:07:38 145.865
BUGSAT 1 21 Jan 12:08:10 12:12:07 49° 71° (ENE) 12:16:09 437.445
QB50P2 21 Jan 12:14:26 12:18:01 26° 266° (W) 12:21:37 145.880/145.840
PCSat 21 Jan 12:16:54 12:21:19 24° 325° (NW) 12:25:44 145.827
AO-85 21 Jan 12:39:22 12:43:23 81° 125° (SE) 12:47:45 145.980
SO-50 21 Jan 12:40:59 12:45:06 30° 37° (NE) 12:49:17 436.795
BEESAT 2 21 Jan 12:43:06 12:46:20 22° 325° (NW) 12:49:35 435.950
DUCHIFAT 1 21 Jan 12:44:24 12:47:27 19° 268° (W) 12:50:31 145.980
EO-79 21 Jan 12:46:45 12:49:08 15° 271° (W) 12:51:32 145.935-145.965
AO-7 21 Jan 12:48:50 12:55:32 28° 48° (NE) 13:02:15 .
SPROUT 21 Jan 12:49:25 12:53:43 67° 102° (ESE) 12:58:00 437.525
VELOX 1 21 Jan 12:54:14 12:58:25 41° 98° (E) 13:02:34 145.980
ESTCUBE 1 21 Jan 12:56:13 13:00:11 31° 294° (WNW) 13:04:07 437.505/2401.250
Gurwin Techsat 1B 21 Jan 12:58:52 13:04:09 76° 73° (ENE) 13:09:30 435.225
YUBILEINY 21 Jan 13:04:56 13:08:23 13° 291° (WNW) 13:11:51 435.215
DX 1 21 Jan 13:11:03 13:13:13 13° 89° (E) 13:15:23 434.975-435.025
Oscar 19 21 Jan 13:11:11 13:16:22 68° 257° (WSW) 13:21:35 437.125/150
AO-91 21 Jan 13:14:30 13:17:46 47° 261° (W) 13:21:12 145.960
LO-87 21 Jan 13:14:35 13:15:59 12° 300° (WNW) 13:17:22 145.935 - 145.965
BUGSAT 1 21 Jan 13:44:59 13:47:45 18° 269° (W) 13:50:35 437.445
PCSat 21 Jan 14:05:04 14:06:46 11° 350° (N) 14:08:27 145.827
RS-15 21 Jan 14:08:33 14:19:38 39° 14° (NNE) 14:30:13 29.354- 29.394
M-CUBED/EXP-1 PRIME 21 Jan 14:12:12 14:12:49 10° 51° (NE) 14:13:26 437.505
ITAMSAT 1 21 Jan 14:18:33 14:23:11 35° 64° (ENE) 14:27:51 435.822/435.867
AO-85 21 Jan 14:21:08 14:24:23 21° 329° (NNW) 14:27:49 145.980
SO-50 21 Jan 14:21:15 14:25:51 56° 237° (WSW) 14:30:31 436.795
SPROUT 21 Jan 14:26:30 14:29:06 16° 300° (WNW) 14:31:44 437.525
VELOX 1 21 Jan 14:31:05 14:34:39 25° 297° (WNW) 14:38:12 145.980
UKube-1 21 Jan 14:33:01 14:37:16 54° 101° (E) 14:41:29 .
50 SAT 21 Jan 14:38:21 14:41:28 70° 286° (WNW) 14:44:34 437.505
AO-7 21 Jan 14:38:59 14:47:22 89° 242° (WSW) 14:55:50 .
Gurwin Techsat 1B 21 Jan 14:41:16 14:44:42 17° 271° (W) 14:48:09 435.225
DX 1 21 Jan 14:45:33 14:49:54 72° 287° (WNW) 14:54:13 434.975-435.025
MOZHAYETS 4 21 Jan 14:50:00 14:53:59 27° 94° (E) 14:57:55
BEESAT 21 Jan 15:01:43 15:05:22 21° 92° (E) 15:08:59 436.000
M-CUBED/EXP-1 PRIME 21 Jan 15:42:19 15:46:35 70° 68° (ENE) 15:50:34 437.505
PCSat 21 Jan 15:50:16 15:52:44 13° 17° (NNE) 15:55:11 145.827
DOVE 4 21 Jan 15:52:29 15:56:39 56° 72° (ENE) 16:00:44 437.250
CUTE-I 21 Jan 15:56:24 15:59:20 15° 54° (NE) 16:02:16 437.470
ITAMSAT 1 21 Jan 15:57:51 16:02:37 37° 263° (W) 16:07:25 435.822/435.867
ITUPSAT 1 21 Jan 15:59:11 16:04:01 68° 103° (ESE) 16:08:49 437.325
AO-85 21 Jan 16:05:32 16:06:32 11° 354° (N) 16:07:32 145.980
UKube-1 21 Jan 16:09:51 16:12:55 19° 299° (WNW) 16:15:59 .
HO-68 21 Jan 16:15:48 16:20:39 20° 48° (NE) 16:25:31 435.675
LilacSat-2 21 Jan 16:21:11 16:23:56 19° 64° (ENE) 16:26:41 437.200
RS-15 21 Jan 16:22:32 16:34:29 72° 45° (NE) 16:45:44 29.354- 29.394
XW-2C 21 Jan 16:22:58 16:25:38 18° 64° (ENE) 16:28:17 145.795 - 145.815
DX 1 21 Jan 16:24:32 16:25:17 10° 306° (NW) 16:26:01 434.975-435.025
MOZHAYETS 4 21 Jan 16:26:55 16:31:13 38° 293° (WNW) 16:35:29
CUBESAT XI-V 21 Jan 16:30:40 16:35:18 70° 102° (ESE) 16:39:53 437.345
AO-7 21 Jan 16:35:04 16:41:14 22° 270° (W) 16:47:29 .
BEESAT 21 Jan 16:38:46 16:43:27 53° 290° (WNW) 16:48:06 436.000
BEESAT 3 21 Jan 16:52:05 16:55:21 24° 37° (NE) 16:58:33 437.485
KAITUO 1B 21 Jan 16:55:43 16:58:56 27° 68° (ENE) 17:02:10 145.475/437.950
XW-2F 21 Jan 16:57:51 17:01:23 37° 70° (ENE) 17:04:55 145.980 - 146.000
CUTE 1.7 + AOD 2 21 Jan 17:05:02 17:07:54 18° 62° (ENE) 17:10:46 437.475
NUDT-PHONESAT 21 Jan 17:05:42 17:09:04 33° 69° (ENE) 17:12:26 437.300
XW-2D 21 Jan 17:07:42 17:11:26 53° 72° (ENE) 17:15:11 145.860 - 145.880
M-CUBED/EXP-1 PRIME 21 Jan 17:19:04 17:21:17 14° 263° (W) 17:23:25 437.505
CUBEBUG 2 21 Jan 17:21:28 17:24:34 19° 60° (ENE) 17:27:42 437.445
XW-2B 21 Jan 17:25:14 17:29:04 81° 74° (ENE) 17:32:54 145.730 - 145.750
UWE-3 21 Jan 17:27:02 17:29:09 13° 57° (ENE) 17:31:18 435.000/436.395/437.385
DOVE 4 21 Jan 17:32:09 17:34:42 15° 270° (W) 17:37:14 437.250
PCSat 21 Jan 17:32:58 17:37:52 33° 42° (NE) 17:42:45 145.827
CUTE-I 21 Jan 17:33:15 17:38:34 81° 73° (ENE) 17:43:54 437.470
NO-84 21 Jan 17:37:34 17:40:31 49° 143° (SE) 17:43:20 435.350 FM
ITUPSAT 1 21 Jan 17:38:00 17:41:21 19° 301° (WNW) 17:44:41 437.325
BEESAT 2 21 Jan 17:41:06 17:44:21 23° 35° (NE) 17:47:34 435.950
AO-85 21 Jan 17:46:32 17:48:59 14° 19° (NNE) 17:51:32 145.980
ZACube-1 21 Jan 17:49:59 17:51:49 12° 56° (NE) 17:53:39 437.345
KKS-1 21 Jan 17:52:15 17:56:43 71° 103° (ESE) 18:01:10 437.445
LilacSat-2 21 Jan 17:54:13 17:57:55 43° 261° (W) 18:01:38 437.200
XW-2C 21 Jan 17:55:50 17:59:30 44° 261° (W) 18:03:12 145.795 - 145.815
AO-73 21 Jan 17:56:21 17:58:15 13° 56° (NE) 18:00:10 145.935
HO-68 21 Jan 18:00:11 18:07:19 76° 70° (ENE) 18:14:30 435.675
STARS 21 Jan 18:06:55 18:11:07 42° 99° (E) 18:15:19 437.465
AAUSAT CUBESAT 2 21 Jan 18:06:58 18:09:59 20° 63° (ENE) 18:13:01 437.432
CUBESAT XI-V 21 Jan 18:09:10 18:12:09 17° 301° (WNW) 18:15:06 437.345
SEEDS 21 Jan 18:25:31 18:29:41 65° 74° (ENE) 18:33:53 437.485
Oscar 11 21 Jan 18:28:17 18:30:50 15° 59° (ENE) 18:33:24 .
BEESAT 3 21 Jan 18:29:16 18:33:08 54° 237° (WSW) 18:36:54 437.485
KAITUO 1B 21 Jan 18:29:39 18:32:52 26° 265° (W) 18:36:04 145.475/437.950
XW-2F 21 Jan 18:32:46 18:35:36 20° 267° (W) 18:38:27 145.980 - 146.000
RS-15 21 Jan 18:35:41 18:46:11 42° 251° (WSW) 18:56:14 29.354- 29.394
CUTE 1.7 + AOD 2 21 Jan 18:39:07 18:43:19 57° 260° (W) 18:47:32 437.475
NUDT-PHONESAT 21 Jan 18:40:01 18:42:57 22° 267° (W) 18:45:54 437.300
XW-2D 21 Jan 18:43:48 18:45:55 14° 270° (W) 18:48:02 145.860 - 145.880
XW-2A 21 Jan 18:51:36 18:54:51 41° 71° (ENE) 18:58:06 145.665 - 145.685
CUBEBUG 2 21 Jan 18:56:20 19:00:42 60° 260° (W) 19:05:14 437.445
UWE-3 21 Jan 19:00:24 19:04:51 88° 80° (E) 19:09:29 435.000/436.395/437.385
NO-84 21 Jan 19:15:05 19:17:46 31° 342° (NNW) 19:20:22 435.350 FM
CUTE-I 21 Jan 19:16:03 19:19:16 16° 272° (W) 19:22:30 437.470
PCSat 21 Jan 19:16:14 19:21:32 55° 243° (WSW) 19:26:48 145.827
BEESAT 2 21 Jan 19:18:25 19:22:24 62° 236° (SW) 19:26:19 435.950
ZACube-1 21 Jan 19:22:50 19:27:18 81° 76° (ENE) 19:31:54 437.345
AO-85 21 Jan 19:26:11 19:30:41 38° 42° (NE) 19:35:28 145.980
FO-29 21 Jan 19:28:29 19:32:12 19° 90° (E) 19:35:55 435.910
AO-73 21 Jan 19:29:14 19:33:43 83° 76° (ENE) 19:38:18 145.935
KKS-1 21 Jan 19:30:01 19:32:45 16° 302° (WNW) 19:35:29 437.445
STRAND 1 21 Jan 19:40:08 19:45:12 53° 100° (E) 19:50:14 437.568
AAUSAT CUBESAT 2 21 Jan 19:41:10 19:45:09 46° 261° (W) 19:49:08 437.432
STARS 21 Jan 19:43:40 19:47:15 25° 297° (WNW) 19:50:49 437.465
nSIGHT-1 21 Jan 19:49:44 19:50:18 10° 134° (SE) 19:50:53 .
HO-68 21 Jan 19:50:09 19:55:46 24° 269° (W) 20:01:25 435.675
Oscar 11 21 Jan 20:02:06 20:06:27 72° 258° (WSW) 20:10:49 .
SEEDS 21 Jan 20:03:33 20:05:48 14° 271° (W) 20:08:04 437.485
ISS 21 Jan 20:05:15 20:05:53 10° 134° (SE) 20:06:31 437.550
DELFI C3 21 Jan 20:12:40 20:16:05 30° 68° (ENE) 20:19:32 145.870
XW-2A 21 Jan 20:25:46 20:27:44 14° 269° (W) 20:29:42 145.665 - 145.685
UWE-3 21 Jan 20:40:26 20:42:00 12° 275° (W) 20:43:35 435.000/436.395/437.385
Max Valier Satellite 21 Jan 20:44:02 20:47:34 42° 71° (ENE) 20:51:09 145.860
NO-84 21 Jan 20:53:12 20:55:29 21° 3° (N) 20:57:46 435.350 FM
EO-88 21 Jan 21:01:20 21:04:50 44° 71° (ENE) 21:08:20 145.990 - 145.960
ZACube-1 21 Jan 21:02:12 21:04:11 13° 274° (W) 21:06:13 437.345
AO-85 21 Jan 21:06:32 21:11:12 44° 240° (WSW) 21:16:09 145.980
AO-73 21 Jan 21:08:41 21:10:34 12° 274° (W) 21:12:29 145.935
FO-29 21 Jan 21:12:41 21:17:51 60° 290° (WNW) 21:22:59 435.910
TIGRISAT 21 Jan 21:19:51 21:23:41 24° 92° (E) 21:27:31 435.000
STRAND 1 21 Jan 21:19:55 21:24:04 25° 299° (WNW) 21:28:13 437.568
nSIGHT-1 21 Jan 21:22:48 21:25:53 55° 151° (SSE) 21:29:00 .
UNISAT 6 21 Jan 21:35:00 21:39:21 36° 96° (E) 21:43:41 437.425
ISS 21 Jan 21:38:34 21:41:45 54° 151° (SSE) 21:44:58 437.550
DELFI C3 21 Jan 21:47:32 21:50:50 26° 266° (W) 21:54:09 145.870
SPROUT 21 Jan 22:13:38 22:14:52 11° 56° (NE) 22:16:06 437.525
YUBILEINY 21 Jan 22:14:37 22:22:19 36° 83° (E) 22:29:59 435.215
LO-87 21 Jan 22:18:27 22:21:52 46° 72° (ENE) 22:25:20 145.935 - 145.965
Max Valier Satellite 21 Jan 22:19:06 22:21:35 17° 269° (W) 22:24:05 145.860
ESTCUBE 1 21 Jan 22:22:03 22:26:23 46° 70° (ENE) 22:30:43 437.505/2401.250
NO-84 21 Jan 22:30:22 22:33:06 46° 24° (NNE) 22:35:54 435.350 FM
EO-88 21 Jan 22:36:25 22:38:41 16° 269° (W) 22:40:57 145.990 - 145.960
TIGRISAT 21 Jan 22:56:04 23:00:33 45° 291° (WNW) 23:05:01 435.000
nSIGHT-1 21 Jan 22:59:01 23:02:06 50° 350° (N) 23:05:13 .
FO-29 21 Jan 23:00:59 23:01:54 10° 311° (NW) 23:02:47 435.910
PRISM 21 Jan 23:09:50 23:13:55 71° 103° (ESE) 23:17:59 437.425
UNISAT 6 21 Jan 23:11:50 23:15:58 31° 294° (WNW) 23:20:05 437.425
ISS 21 Jan 23:15:05 23:18:17 51° 350° (N) 23:21:30 437.550
AIST 2D 21 Jan 23:21:36 23:25:00 48° 99° (E) 23:28:21 435.315
POLYITAN 1 21 Jan 23:25:29 23:28:29 18° 91° (E) 23:31:26 437.675
NANOSAT C BR1 21 Jan 23:40:07 23:43:29 22° 93° (E) 23:46:50 145.865
SPROUT 21 Jan 23:45:45 23:50:00 81° 76° (ENE) 23:54:18 437.525
LO-87 21 Jan 23:53:32 23:55:31 14° 270° (W) 23:57:32 145.935 - 145.965
QB50P2 21 Jan 23:54:32 23:58:34 38° 97° (E) 00:02:34 145.880/145.840
VELOX 1 21 Jan 23:54:38 23:58:55 58° 72° (ENE) 00:03:15 145.980
UKube-1 21 Jan 23:58:47 23:59:38 11° 55° (NE) 00:00:30 .
ESTCUBE 1 21 Jan 23:59:53 00:03:24 22° 268° (W) 00:06:56 437.505/2401.250
NO-84 22 Jan 00:07:43 00:10:07 24° 223° (SW) 00:12:34 435.350 FM
DX 1 22 Jan 00:09:38 00:12:48 20° 61° (ENE) 00:15:59 434.975-435.025
YUBILEINY 22 Jan 00:09:57 00:18:39 61° 285° (WNW) 00:27:23 435.215
O/OREOS (USA 219) 22 Jan 00:13:17 00:17:23 35° 107° (ESE) 00:21:28 437.305
DUCHIFAT 1 22 Jan 00:22:50 00:27:00 51° 100° (E) 00:31:09 145.980
EO-79 22 Jan 00:25:01 00:29:18 71° 101° (ESE) 00:33:35 145.935-145.965
nSIGHT-1 22 Jan 00:35:27 00:38:35 52° 11° (N) 00:41:42 .
PRISM 22 Jan 00:46:30 00:48:40 14° 301° (WNW) 00:50:49 437.425
ISS 22 Jan 00:51:51 00:55:05 53° 11° (N) 00:58:18 437.550
AIST 2D 22 Jan 00:55:53 00:57:46 14° 297° (WNW) 00:59:40 435.315
AO-91 22 Jan 00:59:01 01:02:40 24° 95° (E) 01:06:35 145.960
POLYITAN 1 22 Jan 01:00:22 01:04:33 52° 289° (WNW) 01:08:43 437.675
50 SAT 22 Jan 01:05:46 01:08:46 54° 73° (ENE) 01:11:50 437.505
Gurwin Techsat 1B 22 Jan 01:11:52 01:15:59 22° 91° (E) 01:20:05 435.225
NANOSAT C BR1 22 Jan 01:15:19 01:19:21 41° 291° (WNW) 01:23:21 145.865
Oscar 19 22 Jan 01:19:08 01:23:46 32° 95° (E) 01:28:21 437.125/150
BUGSAT 1 22 Jan 01:20:57 01:25:07 51° 100° (E) 01:29:15 437.445
SPROUT 22 Jan 01:24:58 01:26:28 12° 273° (W) 01:27:58 437.525
UKube-1 22 Jan 01:30:36 01:34:52 74° 73° (ENE) 01:39:11 .
QB50P2 22 Jan 01:30:39 01:34:11 25° 296° (WNW) 01:37:41 145.880/145.840
VELOX 1 22 Jan 01:32:53 01:35:44 17° 269° (W) 01:38:36 145.980
ITUPSAT 1 22 Jan 01:33:36 01:36:52 19° 58° (ENE) 01:40:09 437.325
DX 1 22 Jan 01:44:27 01:48:39 51° 259° (W) 01:52:54 434.975-435.025
O/OREOS (USA 219) 22 Jan 01:52:48 01:56:49 31° 306° (NW) 02:00:50 437.305
MOZHAYETS 4 22 Jan 01:55:03 01:59:23 41° 68° (ENE) 02:03:45
DUCHIFAT 1 22 Jan 01:59:15 02:02:19 20° 298° (WNW) 02:05:23 145.980
EO-79 22 Jan 02:02:03 02:04:32 15° 301° (WNW) 02:07:03 145.935-145.965
CUBESAT XI-V 22 Jan 02:02:20 02:05:06 16° 58° (ENE) 02:07:51 437.345
BEESAT 22 Jan 02:11:17 02:15:39 37° 66° (ENE) 02:20:03 436.000
nSIGHT-1 22 Jan 02:11:41 02:14:46 48° 210° (SSW) 02:17:51 .
YUBILEINY 22 Jan 02:12:37 02:17:42 16° 311° (NW) 02:22:47 435.215
ISS 22 Jan 02:28:23 02:31:35 50° 209° (SSW) 02:34:46 437.550
AO-91 22 Jan 02:35:04 02:39:14 44° 289° (WNW) 02:43:49 145.960
AO-7 22 Jan 02:37:15 02:43:42 24° 90° (E) 02:50:06 .
Gurwin Techsat 1B 22 Jan 02:51:05 02:56:19 59° 290° (WNW) 03:01:32 435.225
BUGSAT 1 22 Jan 02:57:03 03:00:07 20° 298° (WNW) 03:03:12 437.445
Oscar 19 22 Jan 02:58:21 03:03:10 40° 294° (WNW) 03:07:56 437.125/150
ITUPSAT 1 22 Jan 03:09:25 03:14:11 69° 257° (WSW) 03:19:00 437.325
UKube-1 22 Jan 03:09:25 03:11:24 13° 271° (W) 03:13:23 .
KKS-1 22 Jan 03:19:37 03:22:03 15° 57° (ENE) 03:24:29 437.445
MOZHAYETS 4 22 Jan 03:32:46 03:36:40 26° 266° (W) 03:40:35
CUBESAT XI-V 22 Jan 03:37:09 03:41:52 80° 258° (WSW) 03:46:34 437.345
DOVE 4 22 Jan 03:48:48 03:50:06 11° 88° (E) 03:51:26 437.250
BEESAT 22 Jan 03:49:17 03:53:29 30° 265° (W) 03:57:42 436.000
ITAMSAT 1 22 Jan 04:06:09 04:11:17 57° 101° (E) 04:16:24 435.822/435.867
AO-7 22 Jan 04:29:03 04:37:30 87° 291° (WNW) 04:45:51 .
Gurwin Techsat 1B 22 Jan 04:33:33 04:35:13 11° 310° (NW) 04:36:52 435.225
SO-50 22 Jan 04:40:07 04:43:11 18° 112° (ESE) 04:46:18 436.795
M-CUBED/EXP-1 PRIME 22 Jan 04:51:52 04:54:28 20° 100° (E) 04:56:59 437.505
KKS-1 22 Jan 04:53:35 04:58:01 79° 257° (WSW) 05:02:28 437.445
STARS 22 Jan 05:06:41 05:10:58 59° 71° (ENE) 05:15:17 437.465
CUBESAT XI-V 22 Jan 05:19:17 05:19:59 10° 275° (W) 05:20:41 437.345
STRAND 1 22 Jan 05:22:45 05:26:13 19° 57° (ENE) 05:29:41 437.568
DOVE 4 22 Jan 05:24:01 05:28:21 87° 288° (WNW) 05:32:55 437.250
LilacSat-2 22 Jan 05:24:26 05:26:44 15° 90° (E) 05:29:01 437.200
XW-2C 22 Jan 05:25:27 05:27:35 14° 90° (E) 05:29:42 145.795 - 145.815
HO-68 22 Jan 05:27:49 05:29:01 10° 81° (E) 05:30:12 435.675
FALCONSAT 3 22 Jan 05:37:46 05:38:44 11° 177° (S) 05:39:41 435.103
FO-29 22 Jan 05:45:30 05:49:37 18° 56° (NE) 05:53:27 435.910
ITAMSAT 1 22 Jan 05:46:16 05:50:24 25° 300° (WNW) 05:54:32 435.822/435.867
CUTE-I 22 Jan 05:46:56 05:51:11 24° 92° (E) 05:55:26 437.470
KAITUO 1B 22 Jan 05:56:32 05:59:28 22° 94° (E) 06:02:24 145.475/437.950
XW-2F 22 Jan 05:59:50 06:03:12 31° 96° (E) 06:06:31 145.980 - 146.000
NUDT-PHONESAT 22 Jan 06:05:25 06:08:32 26° 95° (E) 06:11:38 437.300
XW-2D 22 Jan 06:10:18 06:13:57 45° 100° (E) 06:17:32 145.860 - 145.880
SO-50 22 Jan 06:18:42 06:23:09 68° 312° (NW) 06:27:43 436.795
CUTE 1.7 + AOD 2 22 Jan 06:20:46 06:23:48 19° 91° (E) 06:26:47 437.475
AO-7 22 Jan 06:22:41 06:29:15 27° 313° (NW) 06:35:48 .
M-CUBED/EXP-1 PRIME 22 Jan 06:25:59 06:28:56 28° 299° (WNW) 06:31:47 437.505
XW-2B 22 Jan 06:27:52 06:31:39 71° 102° (ESE) 06:35:22 145.730 - 145.750
CUBEBUG 2 22 Jan 06:43:26 06:47:20 24° 92° (E) 06:51:11 437.445
STARS 22 Jan 06:44:56 06:47:42 16° 270° (W) 06:50:28 437.465
UWE-3 22 Jan 06:47:17 06:50:06 16° 88° (E) 06:52:52 435.000/436.395/437.385
RS-15 22 Jan 06:51:59 07:01:43 29° 102° (ESE) 07:11:19 29.354- 29.394
LilacSat-2 22 Jan 06:57:37 07:01:17 47° 289° (WNW) 07:04:54 437.200
XW-2C 22 Jan 06:58:24 07:02:04 50° 288° (WNW) 07:05:41 145.795 - 145.815
STRAND 1 22 Jan 06:59:44 07:04:49 76° 256° (WSW) 07:09:58 437.568
DOVE 4 22 Jan 07:03:47 07:05:26 12° 302° (WNW) 07:07:07 437.250
ZACube-1 22 Jan 07:08:56 07:11:09 13° 87° (E) 07:13:21 437.345
HO-68 22 Jan 07:11:16 07:18:20 57° 102° (ESE) 07:25:21 435.675
AO-73 22 Jan 07:14:59 07:17:13 13° 87° (E) 07:19:25 145.935
AAUSAT CUBESAT 2 22 Jan 07:19:38 07:22:46 21° 92° (E) 07:25:52 437.432
CUTE-I 22 Jan 07:26:23 07:31:35 56° 291° (WNW) 07:36:46 437.470
FO-29 22 Jan 07:27:21 07:34:04 86° 73° (ENE) 07:40:00 435.910
KAITUO 1B 22 Jan 07:30:12 07:33:29 31° 292° (WNW) 07:36:45 145.475/437.950
XW-2F 22 Jan 07:34:09 07:37:10 23° 294° (WNW) 07:40:09 145.980 - 146.000
NUDT-PHONESAT 22 Jan 07:39:12 07:42:20 26° 293° (WNW) 07:45:25 437.300
SEEDS 22 Jan 07:40:50 07:45:02 77° 103° (ESE) 07:49:11 437.485
XW-2A 22 Jan 07:41:56 07:44:48 25° 95° (E) 07:47:36 145.665 - 145.685
XW-2D 22 Jan 07:45:17 07:47:47 17° 297° (WNW) 07:50:15 145.860 - 145.880
Oscar 11 22 Jan 07:46:27 07:49:16 17° 90° (E) 07:52:03 .
CUTE 1.7 + AOD 2 22 Jan 07:55:49 07:59:53 47° 289° (WNW) 08:03:54 437.475
SO-50 22 Jan 08:01:17 08:04:27 18° 334° (NNW) 08:07:39 436.795
XW-2B 22 Jan 08:03:44 08:05:16 12° 300° (WNW) 08:06:49 145.730 - 145.750
YUBILEINY 22 Jan 08:19:17 08:25:48 22° 56° (NE) 08:32:16 435.215
CUBEBUG 2 22 Jan 08:19:34 08:24:08 46° 290° (WNW) 08:28:40 437.445
TIGRISAT 22 Jan 08:21:51 08:25:47 31° 66° (ENE) 08:29:50 435.000
UWE-3 22 Jan 08:22:21 08:27:02 70° 287° (WNW) 08:31:39 435.000/436.395/437.385
PCSat 22 Jan 08:23:23 08:24:02 10° 101° (E) 08:24:41 145.827
PRISM 22 Jan 08:30:47 08:31:37 11° 56° (NE) 08:32:26 437.425
UNISAT 6 22 Jan 08:37:04 08:41:20 47° 70° (ENE) 08:45:44 437.425
O/OREOS (USA 219) 22 Jan 08:40:24 08:43:47 20° 48° (NE) 08:47:09 437.305
ZACube-1 22 Jan 08:43:24 08:48:01 78° 284° (WNW) 08:52:30 437.345
STRAND 1 22 Jan 08:43:39 08:44:53 11° 275° (W) 08:46:08 437.568
AO-73 22 Jan 08:49:26 08:54:01 77° 286° (WNW) 08:58:29 145.935
AAUSAT CUBESAT 2 22 Jan 08:54:31 08:58:23 41° 290° (WNW) 09:02:14 437.432
HO-68 22 Jan 08:59:26 09:05:47 36° 302° (WNW) 09:12:08 435.675
RS-15 22 Jan 09:00:18 09:12:41 87° 125° (SE) 09:24:49 29.354- 29.394
CUTE-I 22 Jan 09:09:20 09:10:31 11° 311° (NW) 09:11:42 437.470
XW-2A 22 Jan 09:14:41 09:17:23 23° 293° (WNW) 09:20:04 145.665 - 145.685
FO-29 22 Jan 09:15:24 09:19:43 18° 270° (W) 09:23:47 435.910
SEEDS 22 Jan 09:18:04 09:20:08 14° 301° (WNW) 09:22:11 437.485
DELFI C3 22 Jan 09:19:45 09:23:11 28° 95° (E) 09:26:36 145.870
Oscar 11 22 Jan 09:21:30 09:25:46 57° 288° (WNW) 09:29:59 .
